Location: Boda
(47.1872°N, 9.5454°E)
Time: 18:13:51
(UTC+00:00)

ATLAS CENTAUR R/B - Pass Details

Date: 14 May 2021
Orbit: 472 x 671 km, 64.6° (Epoch: 13 June)

Event Time Altitude Azimuth Distance (km) Brightness Sun altitude
Exits shadow 01:17:49 - 289° (WNW) 2,282 4.4 -18.9°
Reaches altitude 10° 01:20:43 10° 322° (NW) 1,717 4.1 -18.6°
Maximum altitude 01:21:38 11° 336° (NNW) 1,685 4.3 -18.6°
Drops below altitude 10° 01:22:34 10° 350° (N) 1,740 4.6 -18.5°
Sets 01:26:35 0° 30° (NNE) 2,689 6.6 -18.1°
